sat.trackr.live / text

‹ back to catalog

STARLINK-5686

NORAD 55450 · 2023-015B

PAYLOAD ACTIVE UNKNOWN

§ Identity

Operator
Country
US
Launch date
2023-02-02
Launch site
AFETR
Launch vehicle
Mass (kg)
RCS (m²)

Purposes: comms

External: N2YO · Heavens-Above · Gunter

§ Orbital elements

Epoch: 2026-05-25T00:37:15.422016Z

Period
94.27 min
Inclination
43.0014°
Eccentricity
0.0001477
Mean motion
15.27575794 rev/d
Perigee alt
482.0 km
Apogee alt
484.1 km
Semi-major
6,861.2 km
B*
2.6607e-5
RAAN
257.8846°
Arg perigee
273.2499°
Mean anomaly
86.8184°
Rev number
18,333

§ Raw data

STARLINK-56861 55450U 23015B   26145.02587294  .00000470  00000+0  26607-4 0  99902 55450  43.0014 257.8846 0001477 273.2499  86.8184 15.27575794183333

JSON: /api/v1/satellites/55450 · /tle

For live sub-satellite position, see the globe view (requires WebGL).

§ Visibility from observer

Set your observer location to see the next 7 days of passes ≥ 10°. The values pass through the URL so the page stays shareable.

No JS? Fill the form by hand. The geolocation button needs JavaScript.